sat.trackr.live / text

‹ back to catalog

STARLINK-2471

NORAD 48129 · 2021-027AP

PAYLOAD ACTIVE UNKNOWN

§ Identity

Operator
Country
US
Launch date
2021-04-07
Launch site
AFETR
Launch vehicle
Mass (kg)
RCS (m²)

Purposes: comms

External: N2YO · Heavens-Above · Gunter

§ Orbital elements

Epoch: 2026-09-19T19:16:21.110304Z

Period
94.01 min
Inclination
53.1616°
Eccentricity
0.0001401
Mean motion
15.31703081 rev/d
Perigee alt
469.8 km
Apogee alt
471.7 km
Semi-major
6,848.9 km
B*
5.1522e-5
RAAN
342.2008°
Arg perigee
90.3110°
Mean anomaly
269.8052°
Rev number
30,225

§ Raw data

STARLINK-24711 48129U 21027AP  26262.80302211  .00001234  00000+0  51522-4 0  99992 48129  53.1616 342.2008 0001401  90.3110 269.8052 15.31703081302250

JSON: /api/v1/satellites/48129 · /tle

For live sub-satellite position, see the globe view (requires WebGL).

§ Visibility from observer

Set your observer location to see the next 7 days of passes ≥ 10°. The values pass through the URL so the page stays shareable.

No JS? Fill the form by hand. The geolocation button needs JavaScript.